SPACEMOBILE-SSR05 DEB, 62373

Orbit data source: Space-Track

SPACEMOBILE-SSR05 DEB, 62373 is space debris in LEO originally from a launch on Thu, 12 Sep 2024 UTC launched from the Air Force Eastern Test Range (AFETR). Debris objects in space refer to the collection of defunct objects orbiting the Earth. Examples of debris include non-operational satellites, rocket bodies, and fragments generated from explosions, collisions, or faulty payload assembly.

Loading next visibility...
Identifier
62373, 2024-163K
Orbit
LEO
Country
Flag of USUS
Related business
Manufacturer
AST & Science
Mission
Spacecraft
Bus & Motor
BW3 LVA, Unknown motor
Mass
150 kg wet, 150 kg dry
Launch date (UTC)
2024-09-12 (1 year ago)
Launch vehicle
Unknown
Launch site
Air Force Eastern Test Range (AFETR)
Object type
Payload
Rocket body
Debris
Shape & HBR
Cyl, 3.8 m
Radar Cross Section
1.963 m², Large (>1 m²)

Expand to show TLE details & history
Last TLE update: 13 hours ago

TLE from 13 hours ago
0 SPACEMOBILE-SSR05 DEB
1 62373U 24163K   26035.67208674  .00020294  00000-0  69331-3 0  9995
2 62373  52.9762 184.2191 0008459  91.6022 268.5946 15.30269091 77804
Epoch: 2026-02-04T16:07Z
TLE epoch observation values (Epoch: 2026-02-04T16:07:48.294Z)
Latitude
0.00004°
Longitude
167.43259°
Altitude
476.036 km
Speed
7.629 km/s
True Right ascension
12h 16m 52s
True Declination
0° 00' 00"
Sunlit
Object was in full shadow at epoch
Visualization orbit readout
Latitude
Unknown
Longitude
Unknown
Altitude
Unknown
Speed
Unknown
Apparent Right ascension
Unknown
Apparent Declination
Unknown
Sunlit
N/A
Visualization observer readout
Local Sidereal Time
06:41:54
Azimuth
Unknown
Elevation
Unknown
Doppler factor
Unknown
Orbital elements
Apogee altitude
481.092 km
Perigee altitude
469.498 km
Semi-major axis
6,853.432 km
Eccentricity
0.00085
Inclination
52.9762°
RAAN
184.2191°
Arg. of periapsis
91.6022°
True anomaly
268.4977°
Mean anomaly
268.5946°
Eccentric anomaly
268.54615°
Mean motion
3.82544 °/min
Orbital period
94.11 mins
BSTAR
0.00069331
Loading maneuver chart data...
Computing Atmospheric mass density...
Loading historical data...
Loading historical data...
Loading historical data...
Loading historical data...
Loading historical data...
Loading historical data...
Loading historical data...

Documentation

Showing up to 5 results
|